Find Starlink 11454

NORAD ID: 62059 Int'l Des: 2024-217 Owner: SPXS Country: US Constellation: starlink operational
LEOCIRCULAR

Current View

Loading 3D Globe...

About Starlink 11454

Starlink 11454 (NORAD 62059) is a starlink constellation satellite (v2 mini d2c) launched Nov 24, 2024 by SPXS of US. It operates in LEO, CIRCULAR orbit with a mass of 960.00 kg.

About Starlink 11454

Description loading...

Upcoming Passes

Passes for default location (London). Set your location on the main map for personalized predictions.

Altitude History

Loading altitude history...

Two-Line Element Set

1 62059U 24217C 26168.59907942 .00127413 00000-0 10403-2 0 9994
2 62059 53.1584 298.8718 0001415 32.2671 327.8433 15.69712615 90861
Epoch: Jun 17, 2026 • Age: 8 hours

Current Status

Altitude 361.7 km
Velocity 7.70 km/s
Sub-Earth Point 38.01°N, 93.23°E
Launch Date Nov 24, 2024
Age 1.5 years
Type internet

Technical Details

Classification Payload
Mass 960.00 kg
Dry Mass 910.00 kg
Total Mass 960.00 kg
Length 0.30 m
Diameter 4.10 m
Span 29.00 m
Shape Box + pan
Manufacturer SPXS
Bus Type Starlink V2MD
Phase Status In Orbit
Owner/State SPXS/US

Most Searched